Retour au catalogue

BREEZE-M R/B

ActifHEO
NORAD 28447·ROCKET BODY·🇷🇺 Russia

Lancé Oct 14, 2004 depuis Baikonur Cosmodrome

Loading…

Prochains Passages (prochaines 24 heures)

TLE

VieillissantSource: Space-Track

Époque: Aug 29, 2026, 03:11 UTC

1 28447U 04041B   26241.13283330 -.00000120  00000-0  00000+0 0  9995
2 28447  16.5530 224.1070 5129283 128.7056 321.9878  1.86976322149389

Suivez BREEZE-M R/B en temps réel avec AllMySat

Download on the App Store